• Join FlightAware (Why Join?)
  • Login
  • US Flag 
11:20PM EDT


 

Airport Tracker/Info


-or-


 

Live Flight TrackerFlight Track Log ✈ GLO1999 ✈ 04-May-2014 ✈ SBMQ / MCP - SBBE / BEL

Flight Track Log - Related Links

Times and Time Zones

All times are in EDT time to prevent confusion due to time zone crossing. See the GLO1999 flight status page for this flight to view local times or setup timezone preferences in your user account.

Time Position Orientation Groundspeed Altitude Reporting Facility
EDT Latitude Longitude Course Direction KTS MPH feet Rate Location/Type
03:40AM -0.3693 -50.3129 118° Southeast 419 482 24,600  Level FlightAware ADS-B
03:40AM -0.4067 -50.2458 118° Southeast 423 487 25,900 1,860 Climbing FlightAware ADS-B
03:41AM -0.4419 -50.1825 118° Southeast 427 491 27,000 1,740 Climbing FlightAware ADS-B
03:41AM -0.4694 -50.1331 118° Southeast 430 495 27,800 1,560 Climbing FlightAware ADS-B
03:42AM -0.5027 -50.0732 118° Southeast 426 490 28,700 960 Climbing FlightAware ADS-B
03:43AM -0.5389 -50.0082 118° Southeast 425 489 29,000 180 Climbing FlightAware ADS-B
03:43AM -0.5771 -49.9394 118° Southeast 425 489 29,000  Level FlightAware ADS-B
03:44AM -0.6108 -49.8785 118° Southeast 425 489 29,000  Level FlightAware ADS-B
03:44AM -0.6367 -49.8317 118° Southeast 426 490 29,000  Level FlightAware ADS-B
03:45AM -0.6719 -49.7682 118° Southeast 429 494 29,000 -420 Level FlightAware ADS-B
03:45AM -0.6960 -49.7248 118° Southeast 422 486 28,600 -1,260 Descending FlightAware ADS-B
03:46AM -0.7401 -49.6452 118° Southeast 408 470 27,500 -1,800 Descending FlightAware ADS-B
03:47AM -0.7797 -49.5736 118° Southeast 404 465 25,900 -2,220 Descending FlightAware ADS-B
03:48AM -0.8179 -49.5044 118° Southeast 398 458 24,300 -2,340 Descending FlightAware ADS-B
03:48AM -0.8437 -49.4576 118° Southeast 395 455 23,200 -2,280 Descending FlightAware ADS-B
03:49AM -0.8927 -49.3689 118° Southeast 387 445 21,100 -2,220 Descending FlightAware ADS-B
03:49AM -0.9222 -49.3153 118° Southeast 381 438 19,900 -2,160 Descending FlightAware ADS-B
03:50AM -0.9623 -49.2427 118° Southeast 371 427 18,200 -2,160 Descending FlightAware ADS-B
03:51AM -0.9933 -49.1865 118° Southeast 365 420 16,900 -2,340 Descending FlightAware ADS-B
03:52AM -1.0284 -49.1263 125° Southeast 365 420 15,200 -2,400 Descending FlightAware ADS-B
03:52AM -1.0727 -49.0789 135° Southeast 359 413 13,700 -2,160 Descending FlightAware ADS-B
03:53AM -1.1096 -49.0424 135° Southeast 348 400 12,700 -1,920 Descending FlightAware ADS-B
03:53AM -1.1558 -48.9967 135° Southeast 337 388 11,400 -1,860 Descending FlightAware ADS-B
03:54AM -1.1905 -48.9624 135° Southeast 329 379 10,500 -1,260 Descending FlightAware ADS-B
03:54AM -1.2217 -48.9315 135° Southeast 306 352 10,100 -720 Descending FlightAware ADS-B
03:55AM -1.2510 -48.9027 135° Southeast 282 325 9,800 -960 Descending FlightAware ADS-B
03:55AM -1.2711 -48.8829 135° Southeast 280 322 9,300 -1,620 Descending FlightAware ADS-B
03:56AM -1.2830 -48.8710 134° Southeast 280 322 8,900 -1,680 Descending FlightAware ADS-B
03:56AM -1.3015 -48.8527 135° Southeast 280 322 8,400 -1,500 Descending FlightAware ADS-B
03:56AM -1.3200 -48.8343 135° Southeast 277 319 7,900 -1,380 Descending FlightAware ADS-B
03:57AM -1.3414 -48.8131 135° Southeast 274 315 7,400 -1,380 Descending FlightAware ADS-B
03:57AM -1.3640 -48.7910 135° Southeast 270 311 6,800 -1,500 Descending FlightAware ADS-B
03:57AM -1.3785 -48.7767 135° Southeast 267 307 6,400 -1,320 Descending FlightAware ADS-B
03:58AM -1.3967 -48.7587 135° Southeast 266 306 6,000 -1,260 Descending FlightAware ADS-B
03:58AM -1.4084 -48.7471 135° Southeast 265 305 5,700 -1,200 Descending FlightAware ADS-B
03:58AM -1.4276 -48.7281 135° Southeast 259 298 5,300 -960 Descending FlightAware ADS-B
03:59AM -1.4410 -48.7149 135° Southeast 251 289 5,100 -600 Descending FlightAware ADS-B
03:59AM -1.4521 -48.7040 135° Southeast 242 278 5,000 -480 Descending FlightAware ADS-B
03:59AM -1.4603 -48.6945 126° Southeast 234 269 4,900 -600 Descending FlightAware ADS-B
03:59AM -1.4713 -48.6747 115° Southeast 220 253 4,700 -840 Descending FlightAware ADS-B
04:00AM -1.4812 -48.6538 115° Southeast 219 252 4,300 -1,080 Descending FlightAware ADS-B
04:00AM -1.4861 -48.6436 115° Southeast 215 247 4,100 -1,140 Descending FlightAware ADS-B
04:00AM -1.4956 -48.6244 115° Southeast 210 242 3,700 -900 Descending FlightAware ADS-B
04:01AM -1.5017 -48.6071 93° East 193 222 3,500 -840 Descending FlightAware ADS-B
04:01AM -1.4994 -48.5983 61° Northeast 186 214 3,300 -900 Descending FlightAware ADS-B
04:01AM -1.4941 -48.5920 46° Northeast 176 203 3,200 -840 Descending FlightAware ADS-B
04:01AM -1.4833 -48.5809 44° Northeast 164 189 2,900 -1,020 Descending FlightAware ADS-B
04:02AM -1.4741 -48.5717 45° Northeast 161 185 2,600 -1,200 Descending FlightAware ADS-B
04:02AM -1.4640 -48.5616 45° Northeast 161 185 2,200 -1,080 Descending FlightAware ADS-B
04:02AM -1.4537 -48.5511 45° Northeast 151 174 1,900 -960 Descending FlightAware ADS-B
04:02AM -1.4452 -48.5426 45° Northeast 149 171 1,600 -840 Descending FlightAware ADS-B
04:03AM -1.4365 -48.5338 45° Northeast 140 161 1,400 -720 Descending FlightAware ADS-B
04:03AM -1.4284 -48.5256 45° Northeast 135 155 1,200 -660 Descending FlightAware ADS-B
04:03AM -1.4204 -48.5175 44° Northeast 136 157 1,000 -720 Descending FlightAware ADS-B
04:04AM -1.4124 -48.5096 45° Northeast 137 158 800 -780 Descending FlightAware ADS-B
04:04AM -1.4055 -48.5026 45° Northeast 142 163 600 -780 Descending FlightAware ADS-B
04:04AM -1.3992 -48.4962 44° Northeast 143 165 400 -780 Descending FlightAware ADS-B
04:04AM -1.3895 -48.4865 45° Northeast 144 166 200 -720 Descending FlightAware ADS-B